K6OUA-11 Weather Reports


time (UTC)temp
F
wind
direction
speed
knots
gust
knots
rain 1hr
in
rain 24hr
in
rain mn
in
humidity
%
barometer
mb
20211128104839 50 135 0.0 0.0 0.00 0.00 0.00 28 1014.3
20211128104237 50 135 0.0 0.0 0.00 0.00 0.00 28 1014.3
20211128103334 51 135 0.0 0.0 0.00 0.00 0.00 28 1014.4
20211128103033 51 135 0.0 0.0 0.00 0.00 0.00 27 1014.4
20211128102731 51 135 0.0 0.0 0.00 0.00 0.00 27 1014.3
20211128102431 51 135 0.0 0.0 0.00 0.00 0.00 27 1014.2
20211128101527 52 90 0.0 0.0 0.00 0.00 0.00 27 1014.1
20211128100925 52 112 0.0 0.0 0.00 0.00 0.00 27 1014.1
20211128100624 52 90 0.0 0.0 0.00 0.00 0.00 27 1014.1
20211128100322 52 90 0.0 0.0 0.00 0.00 0.00 27 1014.3
20211128095721 52 96 0.0 0.0 0.00 0.00 0.00 27 1014.1
20211128095117 52 92 0.0 0.0 0.00 0.00 0.00 28 1014.0
20211128094817 52 135 0.0 0.0 0.00 0.00 0.00 28 1014.1
20211128094516 52 99 0.0 1.7 0.00 0.00 0.00 28 1014.0
20211128094215 52 90 4.3 7.0 0.00 0.00 0.00 28 1014.3
20211128093914 51 90 2.6 7.0 0.00 0.00 0.00 29 1014.1
20211128093010 51 90 5.2 6.1 0.00 0.00 0.00 30 1014.2
20211128092402 50 90 4.3 6.1 0.00 0.00 0.00 30 1014.2
20211128091800 50 90 5.2 6.1 0.00 0.00 0.00 32 1014.1
20211128091500 50 90 5.2 5.2 0.00 0.00 0.00 32 1014.1
20211128090858 50 90 2.6 3.5 0.00 0.00 0.00 31 1014.1
20211128090557 51 90 3.5 3.5 0.00 0.00 0.00 31 1014.1
20211128090256 51 90 1.7 2.6 0.00 0.00 0.00 31 1014.0
20211128085653 51 90 2.6 4.3 0.00 0.00 0.00 30 1014.1
20211128085352 52 90 3.5 3.5 0.00 0.00 0.00 30 1014.0
20211128084749 53 90 1.7 2.6 0.00 0.00 0.00 28 1013.8
20211128083546 53 90 2.6 5.2 0.00 0.00 0.00 27 1014.0
20211128083245 53 90 2.6 5.2 0.00 0.00 0.00 27 1013.9
20211128082641 52 85 5.2 6.1 0.00 0.00 0.00 28 1014.0
20211128082040 52 87 2.6 5.2 0.00 0.00 0.00 29 1013.9
20211128081739 52 90 2.6 5.2 0.00 0.00 0.00 30 1013.9
20211128081438 52 67 3.5 4.3 0.00 0.00 0.00 30 1014.0
20211128080836 53 67 4.3 5.2 0.00 0.00 0.00 30 1014.0
20211128080232 53 90 0.0 0.0 0.00 0.00 0.00 30 1014.0
20211128075932 53 90 0.0 0.0 0.00 0.00 0.00 30 1013.9
20211128075631 52 90 0.0 0.0 0.00 0.00 0.00 31 1014.0
20211128075330 52 90 0.0 0.0 0.00 0.00 0.00 31 1014.1
20211128074728 53 90 0.0 0.0 0.00 0.00 0.00 32 1014.1
20211128074126 53 112 0.0 0.0 0.00 0.00 0.00 32 1014.3
20211128073823 53 90 0.0 0.0 0.00 0.00 0.00 32 1014.2
20211128073524 53 90 0.0 0.0 0.00 0.00 0.00 32 1014.2
20211128073221 53 90 0.0 0.0 0.00 0.00 0.00 32 1014.2
20211128072921 53 90 0.0 0.0 0.00 0.00 0.00 32 1014.2
20211128072620 52 90 0.0 0.0 0.00 0.00 0.00 32 1014.2
20211128072319 52 90 0.0 0.0 0.00 0.00 0.00 34 1014.1
20211128072017 52 90 0.0 0.0 0.00 0.00 0.00 34 1014.2
20211128071716 52 90 0.0 0.0 0.00 0.00 0.00 34 1014.0
20211128070812 52 90 0.0 0.0 0.00 0.00 0.00 34 1014.1
20211128070513 51 90 0.0 0.0 0.00 0.00 0.00 34 1014.1
20211128070213 51 90 0.0 0.0 0.00 0.00 0.00 34 1014.3
20211128065910 51 90 0.0 0.0 0.00 0.00 0.00 34 1014.3
20211128065608 51 92 0.0 0.0 0.00 0.00 0.00 33 1014.3
20211128065007 51 114 0.0 0.0 0.00 0.00 0.00 31 1014.3
20211128064706 51 135 0.0 0.0 0.00 0.00 0.00 32 1014.3
20211128064403 51 135 0.0 0.0 0.00 0.00 0.00 32 1014.2
20211128063501 51 135 0.0 0.0 0.00 0.00 0.00 34 1014.3
20211128063159 51 135 0.0 0.0 0.00 0.00 0.00 34 1014.3
20211128062859 51 135 0.0 0.0 0.00 0.00 0.00 34 1014.2
20211128062257 51 135 0.0 0.0 0.00 0.00 0.00 34 1014.2
20211128061955 51 135 0.0 0.0 0.00 0.00 0.00 33 1014.1
20211128061655 52 135 0.0 0.0 0.00 0.00 0.00 34 1014.2
20211128061353 52 135 0.0 0.0 0.00 0.00 0.00 34 1014.1
20211128061051 52 135 0.0 0.0 0.00 0.00 0.00 34 1014.1
20211128060751 52 135 0.0 0.0 0.00 0.00 0.00 33 1014.0
20211128060148 52 90 0.0 0.0 0.00 0.00 0.00 33 1014.0
20211128055547 53 112 0.0 0.9 0.00 0.00 0.00 34 1014.0
20211128054945 53 112 0.0 0.0 0.00 0.00 0.00 34 1013.9
20211128054643 53 90 0.0 0.0 0.00 0.00 0.00 34 1013.8
20211128054343 53 90 0.0 0.0 0.00 0.00 0.00 34 1013.9
20211128054042 53 90 0.0 0.0 0.00 0.00 0.00 34 1013.8
20211128053439 53 90 0.0 0.0 0.00 0.00 0.00 34 1013.9
20211128053138 53 90 0.0 0.0 0.00 0.00 0.00 34 1013.8
20211128052837 54 90 0.0 0.0 0.00 0.00 0.00 34 1013.9
20211128052536 54 90 0.0 0.0 0.00 0.00 0.00 34 1014.0
20211128052233 54 90 0.0 0.0 0.00 0.00 0.00 34 1013.9
20211128051933 54 90 0.0 0.0 0.00 0.00 0.00 34 1013.9
20211128051632 54 90 0.0 0.0 0.00 0.00 0.00 34 1014.0
20211128050729 54 90 0.0 0.0 0.00 0.00 0.00 34 1013.9
20211128050428 55 90 0.0 0.0 0.00 0.00 0.00 33 1014.0
20211128050127 55 90 0.0 0.0 0.00 0.00 0.00 34 1014.0
20211128045826 55 90 0.0 0.0 0.00 0.00 0.00 34 1014.0
20211128045525 55 90 0.0 0.0 0.00 0.00 0.00 34 1013.9
20211128045224 55 90 0.0 0.0 0.00 0.00 0.00 34 1013.9
20211128044922 55 90 0.0 0.0 0.00 0.00 0.00 34 1013.7
20211128044622 55 90 0.0 0.0 0.00 0.00 0.00 34 1013.7
20211128044320 55 90 0.0 0.0 0.00 0.00 0.00 35 1013.7
20211128044020 55 90 0.0 0.0 0.00 0.00 0.00 35 1013.7
20211128043111 55 90 0.0 0.0 0.00 0.00 0.00 34 1013.8
20211128042809 55 90 0.0 0.0 0.00 0.00 0.00 34 1013.8
20211128041905 55 90 0.0 0.0 0.00 0.00 0.00 35 1013.7
20211128041606 56 90 0.0 0.0 0.00 0.00 0.00 35 1013.5
20211128041305 56 90 0.0 0.0 0.00 0.00 0.00 35 1013.5
20211128040702 56 90 0.0 0.0 0.00 0.00 0.00 35 1013.5
20211128040100 56 90 0.0 0.0 0.00 0.00 0.00 36 1013.5
20211128035157 56 90 0.0 0.0 0.00 0.00 0.00 37 1013.5
20211128034856 55 90 0.0 0.0 0.00 0.00 0.00 38 1013.5
20211128034553 55 90 0.0 0.0 0.00 0.00 0.00 38 1013.6
20211128034252 55 90 0.0 0.0 0.00 0.00 0.00 38 1013.6
20211128033952 55 90 0.0 0.0 0.00 0.00 0.00 39 1013.6
20211128033048 55 90 0.0 0.0 0.00 0.00 0.00 40 1013.4
20211128032749 55 90 0.0 0.0 0.00 0.00 0.00 40 1013.5
20211128032146 55 90 0.0 0.0 0.00 0.00 0.00 40 1013.6
20211128031845 55 90 0.0 0.0 0.00 0.00 0.00 39 1013.7
20211128031544 55 90 0.0 0.0 0.00 0.00 0.00 40 1013.7
20211128031242 55 90 0.0 0.0 0.00 0.00 0.00 40 1013.4
20211128030941 55 135 0.0 0.0 0.00 0.00 0.00 40 1013.5
20211128030640 55 135 0.0 0.0 0.00 0.00 0.00 41 1013.5
20211128030038 55 135 0.0 0.0 0.00 0.00 0.00 41 1013.4
20211128025737 56 135 0.0 0.0 0.00 0.00 0.00 40 1013.3
20211128025436 56 112 0.0 0.0 0.00 0.00 0.00 40 1013.3
20211128025134 56 180 0.0 0.0 0.00 0.00 0.00 40 1013.4
20211128024833 56 180 0.0 0.0 0.00 0.00 0.00 40 1013.3
20211128024531 56 180 0.0 0.0 0.00 0.00 0.00 40 1013.2
20211128024231 56 180 0.0 0.0 0.00 0.00 0.00 40 1013.2
20211128023629 56 180 0.0 0.0 0.00 0.00 0.00 41 1013.2
20211128023328 56 180 0.0 0.0 0.00 0.00 0.00 41 1013.2
20211128023027 55 180 0.0 0.0 0.00 0.00 0.00 40 1013.1
20211128022726 55 180 0.0 0.0 0.00 0.00 0.00 40 1013.2
20211128022424 55 180 0.0 0.0 0.00 0.00 0.00 40 1013.1
20211128022124 55 180 0.0 0.0 0.00 0.00 0.00 40 1013.1
20211128021823 56 180 0.0 0.0 0.00 0.00 0.00 40 1013.1
20211128021520 56 180 0.0 0.0 0.00 0.00 0.00 40 1013.1
20211128021220 56 180 0.0 0.0 0.00 0.00 0.00 40 1013.0
20211128020919 56 180 0.0 0.0 0.00 0.00 0.00 40 1013.0
20211128020617 56 180 0.0 0.0 0.00 0.00 0.00 39 1013.0
20211128015713 57 180 0.0 0.0 0.00 0.00 0.00 38 1012.9
20211128015412 57 180 0.0 0.0 0.00 0.00 0.00 38 1012.9
20211128015112 57 180 0.0 0.0 0.00 0.00 0.00 37 1012.9
20211128014810 57 180 0.0 0.0 0.00 0.00 0.00 37 1012.8
20211128014209 58 180 0.0 0.0 0.00 0.00 0.00 37 1012.9
20211128013907 58 180 0.0 0.0 0.00 0.00 0.00 36 1012.6
20211128013607 58 180 0.0 0.0 0.00 0.00 0.00 36 1012.8
20211128012704 59 180 0.0 0.0 0.00 0.00 0.00 35 1012.7
20211128012101 59 180 0.0 0.0 0.00 0.00 0.00 35 1012.8
20211128011459 60 180 0.0 0.0 0.00 0.00 0.00 33 1012.8
20211128011158 61 180 0.0 0.0 0.00 0.00 0.00 33 1012.7
20211128010856 61 180 0.0 0.0 0.00 0.00 0.00 32 1012.5
20211128010556 62 180 0.0 0.0 0.00 0.00 0.00 32 1012.6
20211128005352 63 180 0.0 0.0 0.00 0.00 0.00 30 1012.6
20211128005050 64 180 0.0 0.0 0.00 0.00 0.00 30 1012.3
20211128003843 66 180 0.0 1.7 0.00 0.00 0.00 28 1012.3
20211128003237 66 180 0.9 1.7 0.00 0.00 0.00 28 1012.1
20211128002637 67 180 0.9 1.7 0.00 0.00 0.00 27 1011.9
20211128002034 68 180 1.7 2.6 0.00 0.00 0.00 25 1012.1
20211128001733 68 180 1.7 2.6 0.00 0.00 0.00 25 1012.3
20211128001432 68 180 1.7 2.6 0.00 0.00 0.00 24 1012.2
20211127235926 70 180 3.5 3.5 0.00 0.00 0.00 22 1011.7
20211127235625 70 180 2.6 3.5 0.00 0.00 0.00 22 1011.7
20211127235324 70 180 2.6 3.5 0.00 0.00 0.00 21 1011.6
20211127234722 71 180 2.6 3.5 0.00 0.00 0.00 21 1011.6
20211127233819 72 180 2.6 4.3 0.00 0.00 0.00 18 1011.5
20211127233518 72 180 3.5 4.3 0.00 0.00 0.00 18 1011.7
20211127233217 72 180 3.5 3.5 0.00 0.00 0.00 17 1011.7
20211127232916 72 180 3.5 4.3 0.00 0.00 0.00 17 1011.5
20211127232615 73 180 4.3 4.3 0.00 0.00 0.00 15 1011.5
20211127232313 73 180 2.6 4.3 0.00 0.00 0.00 15 1011.5
20211127230803 75 180 2.6 3.5 0.00 0.00 0.00 13 1011.3
20211127230501 76 180 2.6 4.3 0.00 0.00 0.00 13 1011.2
20211127230200 76 180 2.6 4.3 0.00 0.00 0.00 13 1011.1
20211127225558 77 180 3.5 4.3 0.00 0.00 0.00 13 1011.2
20211127225258 77 180 3.5 4.3 0.00 0.00 0.00 13 1011.3
20211127224956 78 157 3.5 4.3 0.00 0.00 0.00 13 1011.3
20211127222848 79 337 3.5 4.3 0.00 0.00 0.00 13 1011.1
20211127222547 79 202 4.3 5.2 0.00 0.00 0.00 13 1011.1
20211127221945 79 202 3.5 5.2 0.00 0.00 0.00 13 1011.0
20211127221644 79 337 3.5 5.2 0.00 0.00 0.00 13 1011.0
20211127221343 79 337 4.3 4.3 0.00 0.00 0.00 13 1011.0
20211127220741 79 337 0.0 5.2 0.00 0.00 0.00 12 1010.9
20211127220138 79 337 3.5 5.2 0.00 0.00 0.00 13 1010.9
20211127215536 79 337 4.3 7.8 0.00 0.00 0.00 12 1011.0
20211127214934 79 337 2.6 5.2 0.00 0.00 0.00 12 1011.0
20211127214332 79 337 4.3 5.2 0.00 0.00 0.00 12 1011.0
20211127213729 79 337 5.2 6.1 0.00 0.00 0.00 12 1011.0
20211127213428 79 225 3.5 7.0 0.00 0.00 0.00 11 1010.9
20211127212224 79 225 5.2 7.0 0.00 0.00 0.00 11 1011.0
20211127211923 79 225 5.2 7.0 0.00 0.00 0.00 11 1011.1
20211127211622 79 225 4.3 6.1 0.00 0.00 0.00 11 1011.1
20211127211020 79 225 4.3 7.0 0.00 0.00 0.00 10 1011.2
20211127210719 79 225 5.2 6.1 0.00 0.00 0.00 10 1011.2
20211127210417 79 202 5.2 6.1 0.00 0.00 0.00 10 1011.2
20211127205213 79 180 3.5 7.0 0.00 0.00 0.00 9 1011.4
20211127204912 79 180 4.3 7.0 0.00 0.00 0.00 9 1011.6
20211127204310 80 180 7.8 8.7 0.00 0.00 0.00 9 1011.4
20211127204009 80 180 6.1 10.4 0.00 0.00 0.00 8 1011.4
20211127203708 80 180 5.2 10.4 0.00 0.00 0.00 8 1011.5
20211127203407 81 180 4.3 6.1 0.00 0.00 0.00 8 1011.5
20211127203106 81 180 4.3 6.1 0.00 0.00 0.00 8 1011.5
20211127202503 82 180 3.5 6.1 0.00 0.00 0.00 7 1011.7
20211127201901 83 180 5.2 7.0 0.00 0.00 0.00 7 1011.8
20211127201600 84 180 5.2 7.8 0.00 0.00 0.00 7 1011.7
20211127200657 87 135 5.2 5.2 0.00 0.00 0.00 5 1011.8
20211127195754 87 135 0.0 0.0 0.00 0.00 0.00 3 1012.0
20211127195452 87 135 0.0 0.9 0.00 0.00 0.00 3 1011.7
20211127195151 87 135 0.0 1.7 0.00 0.00 0.00 3 1011.7
20211127194850 86 135 0.0 3.5 0.00 0.00 0.00 3 1011.7
20211127194549 86 135 2.6 3.5 0.00 0.00 0.00 3 1012.0
20211127193945 86 135 0.0 0.0 0.00 0.00 0.00 3 1012.1
20211127193645 86 135 0.0 0.9 0.00 0.00 0.00 3 1012.0
20211127193344 86 135 0.0 0.9 0.00 0.00 0.00 3 1012.1
20211127193044 86 135 0.0 0.0 0.00 0.00 0.00 3 1012.2
20211127192140 86 135 3.5 4.3 0.00 0.00 0.00 4 1012.2
20211127191537 86 87 0.0 0.0 0.00 0.00 0.00 4 1012.3
20211127191237 86 90 0.0 0.9 0.00 0.00 0.00 3 1012.4
20211127190936 86 90 0.0 0.0 0.00 0.00 0.00 3 1012.4
20211127190635 86 90 0.0 0.9 0.00 0.00 0.00 4 1012.4
20211127190334 86 92 0.0 0.0 0.00 0.00 0.00 4 1012.3
20211127185732 86 87 0.9 5.2 0.00 0.00 0.00 4 1012.6
20211127184527 85 135 0.0 2.6 0.00 0.00 0.00 5 1012.7
20211127183926 85 135 0.9 1.7 0.00 0.00 0.00 5 1012.8
20211127183624 84 135 0.0 3.5 0.00 0.00 0.00 5 1012.9
20211127183022 83 137 0.0 3.5 0.00 0.00 0.00 5 1013.0
20211127182721 83 135 2.6 3.5 0.00 0.00 0.00 6 1013.0
20211127182419 82 135 0.0 0.0 0.00 0.00 0.00 6 1012.9
20211127182118 81 135 0.0 0.0 0.00 0.00 0.00 7 1012.9
20211127181516 80 135 0.0 0.9 0.00 0.00 0.00 7 1013.0
20211127180914 79 135 0.0 0.9 0.00 0.00 0.00 7 1013.0
20211127180612 79 135 0.0 0.9 0.00 0.00 0.00 8 1013.1
20211127180312 78 135 0.0 0.9 0.00 0.00 0.00 8 1013.0
20211127180012 78 135 0.9 0.9 0.00 0.00 0.00 8 1013.2
20211127173903 75 135 0.0 0.9 0.00 0.00 0.00 10 1012.8
20211127173300 74 135 0.0 0.9 0.00 0.00 0.00 10 1012.8
20211127172658 74 135 0.0 0.9 0.00 0.00 0.00 11 1012.7
20211127172056 73 135 0.0 0.9 0.00 0.00 0.00 11 1012.7
20211127171756 72 135 0.9 0.9 0.00 0.00 0.00 11 1012.7
20211127170852 70 135 0.0 0.0 0.00 0.00 0.00 11 1012.6
20211127170250 69 135 0.0 5.2 0.00 0.00 0.00 10 1012.7
20211127165948 68 130 0.0 7.0 0.00 0.00 0.00 10 1012.7
20211127165647 67 90 7.0 7.0 0.00 0.00 0.00 10 1012.4
20211127165045 66 90 6.1 7.0 0.00 0.00 0.00 11 1012.4
20211127164744 66 90 4.3 7.0 0.00 0.00 0.00 12 1012.5
20211127164142 65 112 5.2 6.1 0.00 0.00 0.00 12 1012.5
20211127163840 65 112 5.2 6.1 0.00 0.00 0.00 12 1012.4
20211127163540 64 90 4.3 4.3 0.00 0.00 0.00 12 1012.4
20211127162636 63 90 3.5 4.3 0.00 0.00 0.00 12 1012.6
20211127162336 63 135 0.0 0.0 0.00 0.00 0.00 11 1012.4
20211127162034 63 90 0.0 0.0 0.00 0.00 0.00 11 1012.4
20211127161733 62 112 0.0 0.0 0.00 0.00 0.00 11 1012.2
20211127160527 60 132 0.0 0.0 0.00 0.00 0.00 11 1012.3
20211127160228 59 135 0.0 0.0 0.00 0.00 0.00 12 1012.3
20211127155625 58 90 0.0 0.0 0.00 0.00 0.00 13 1012.3
20211127155023 57 90 0.0 0.0 0.00 0.00 0.00 13 1012.1
20211127154421 56 90 0.0 0.0 0.00 0.00 0.00 14 1012.0
20211127154120 56 90 0.0 0.0 0.00 0.00 0.00 13 1012.0
20211127153217 56 135 0.0 0.0 0.00 0.00 0.00 13 1012.0
20211127152915 55 135 0.0 0.0 0.00 0.00 0.00 13 1012.0
20211127152614 55 90 0.0 0.0 0.00 0.00 0.00 13 1011.9
20211127152313 55 90 0.0 0.0 0.00 0.00 0.00 13 1011.9
20211127152012 54 90 0.0 0.0 0.00 0.00 0.00 13 1012.0
20211127151711 54 94 0.0 0.0 0.00 0.00 0.00 13 1012.0
20211127151410 54 135 0.0 0.9 0.00 0.00 0.00 13 1011.9
20211127151109 54 135 0.0 0.0 0.00 0.00 0.00 13 1011.9
20211127150205 54 135 0.0 0.9 0.00 0.00 0.00 12 1011.9
20211127145603 55 135 0.0 0.9 0.00 0.00 0.00 12 1011.7
20211127145301 55 135 0.0 0.9 0.00 0.00 0.00 11 1011.7
20211127144700 56 112 0.0 0.0 0.00 0.00 0.00 10 1011.6
20211127144359 56 112 0.0 0.0 0.00 0.00 0.00 10 1011.6
20211127144057 56 112 0.0 0.0 0.00 0.00 0.00 10 1011.7
20211127143756 55 112 0.0 0.0 0.00 0.00 0.00 10 1011.5
20211127143456 55 112 0.0 0.0 0.00 0.00 0.00 10 1011.4
20211127143154 55 112 0.0 0.9 0.00 0.00 0.00 10 1011.4
20211127142853 55 114 0.0 0.9 0.00 0.00 0.00 10 1011.5
20211127142251 54 112 0.0 0.0 0.00 0.00 0.00 10 1011.5
20211127141950 54 112 0.0 0.0 0.00 0.00 0.00 11 1011.4
20211127141649 54 112 0.0 0.9 0.00 0.00 0.00 11 1011.3
20211127141348 54 112 0.0 0.9 0.00 0.00 0.00 11 1011.3
20211127141045 53 135 0.0 0.0 0.00 0.00 0.00 11 1011.4
20211127140744 53 90 0.0 0.0 0.00 0.00 0.00 11 1011.4
20211127135844 54 90 0.0 0.0 0.00 0.00 0.00 11 1011.4
20211127135539 54 90 0.0 0.0 0.00 0.00 0.00 11 1011.3
20211127134639 55 90 0.0 0.0 0.00 0.00 0.00 10 1011.3
20211127134034 55 90 0.0 0.0 0.00 0.00 0.00 10 1011.2
20211127133735 54 90 0.0 0.0 0.00 0.00 0.00 10 1011.2
20211127133433 54 90 0.0 0.0 0.00 0.00 0.00 10 1011.3
20211127133131 54 90 0.0 0.0 0.00 0.00 0.00 10 1011.3
20211127132530 54 90 0.0 0.0 0.00 0.00 0.00 10 1011.2
20211127132229 55 90 0.0 0.0 0.00 0.00 0.00 10 1011.3
20211127131928 55 90 0.0 0.0 0.00 0.00 0.00 10 1011.2
20211127131627 55 90 0.0 0.0 0.00 0.00 0.00 10 1011.0
20211127131025 55 90 0.0 0.9 0.00 0.00 0.00 9 1010.9
20211127130724 55 90 1.7 5.2 0.00 0.00 0.00 9 1011.0
20211127130121 56 90 4.3 6.1 0.00 0.00 0.00 9 1010.8
20211127125820 56 90 3.5 5.2 0.00 0.00 0.00 9 1010.8
20211127125517 56 90 5.2 6.1 0.00 0.00 0.00 9 1010.8
20211127124615 58 90 4.3 7.0 0.00 0.00 0.00 8 1010.8
20211127124314 59 90 7.0 7.8 0.00 0.00 0.00 8 1010.8
20211127123712 60 112 6.1 7.8 0.00 0.00 0.00 7 1010.8
20211127122809 63 112 3.5 6.1 0.00 0.00 0.00 5 1011.0
20211127121604 63 87 6.1 8.7 0.00 0.00 0.00 4 1011.1
20211127121304 63 90 7.8 7.8 0.00 0.00 0.00 5 1011.0
20211127121002 62 135 0.0 0.0 0.00 0.00 0.00 5 1010.9
20211127120400 62 90 0.0 0.0 0.00 0.00 0.00 5 1010.9
20211127120059 62 135 0.0 0.0 0.00 0.00 0.00 5 1010.5
20211127115757 61 90 0.0 0.0 0.00 0.00 0.00 5 1010.7
20211127114553 62 67 0.0 0.0 0.00 0.00 0.00 7 1010.7
20211127114251 63 67 0.0 0.0 0.00 0.00 0.00 6 1010.6
20211127113951 64 67 0.0 0.0 0.00 0.00 0.00 6 1010.4
20211127113650 64 67 0.0 0.0 0.00 0.00 0.00 5 1010.4
20211127113048 64 51 0.0 0.0 0.00 0.00 0.00 4 1010.1
20211127112747 63 45 0.0 0.0 0.00 0.00 0.00 4 1010.3
20211127112446 63 45 0.0 0.0 0.00 0.00 0.00 4 1010.1
20211127112145 62 45 0.0 0.0 0.00 0.00 0.00 5 1010.2
20211127111844 62 45 0.0 0.0 0.00 0.00 0.00 5 1010.2
20211127111542 62 45 0.0 0.0 0.00 0.00 0.00 5 1010.3
20211127111241 61 45 0.0 0.0 0.00 0.00 0.00 6 1010.2
20211127110940 61 45 0.0 0.0 0.00 0.00 0.00 6 1010.3
20211127110639 61 45 0.0 0.0 0.00 0.00 0.00 6 1010.3
20211127110338 61 45 0.0 0.9 0.00 0.00 0.00 6 1010.4